Location: Kershaw
(34.5481°N, 80.5823°W)
Time: 05:07:32
(UTC+00:00)

Transit 2A Rocket - Pass Details

Date: 05 October 2022
Orbit: 589 x 911 km, 66.7° (Epoch: 27 November)

Event Time Altitude Azimuth Distance (km) Brightness Sun altitude
Exits shadow 08:59:08 - 150° (SSE) 2,090 7.4 -29.6°
Reaches altitude 10° 08:59:44 10° 144° (SE) 1,937 7.3 -29.4°
Maximum altitude 09:02:17 16° 107° (ESE) 1,593 7.3 -28.9°
Drops below altitude 10° 09:04:49 10° 70° (ENE) 1,916 8.0 -28.4°
Sets 09:07:48 0° 48° (NE) 2,824 8.9 -27.8°
